Hlavní strana
METAR-TAF:

METAR-TAF

Letiště :

Malden, Missouri, Spojené státy americké

zeměpisná šířka: 36-35-54N, zeměpisná délka: 089-59-33W, výška: 90 m

Aktuální stav počasí

Zpráva byla vytvořena před 7 minutami, v 03:15 UTC
Severovýchodní vítr 5 kt
Teplota -4°C
Vlhkost vzduchu 80%
Tlak 1030 hPa
Viditelnost: 16.1 km
Jasno

METAR: KMAW 210315Z AUTO 04005KT 10SM CLR M04/M07 A3041 RMK AO2

Čas: 21:22 (03:22 UTC)


TAF: chybějící

Stav a předpovědi počasí z více než 4 000 letišť (zprávy METAR a TAF).

Červené a žluté tečky na mapě představují dostupné meteorologické stanice.

Když kurzor umístíte na tečku, zobrazí se název stanice.

Pak kliknutím zobrazíte stav a předpověď počasí.

Chcete-li změnit mapu, kliknutím na zelené tlačítko se znaménkem +mapu přiblížíte, kliknutím na zelené tlačítko se znaménkem – mapu oddálíte a kliknutím na zelené šipky přejdete na sousední mapy.


METAR-TAF: